LEMUR-2-JEREMIAH (46911 NORAD) Tracking and Keplerian Element Data

This shows tracking and keplerian element data for the satellite.

Feedback or suggestion? Click here.




ElementValue
Catalog46911
NameLEMUR-2-JEREMIAH
Epoch Orbit1067
Epoch Day17.44900276
Epoch Year2021
RAAN39.5993
Inclination36.9054
Eccentricity0.0007074
Argument of Perigee200.9899
Mean Anonmoly159.0549
Mean Motion14.99089483
Decay Rate9.15E-06
L11 46911U 20081G 21017.44900276 .00000915 00000-0 80206-4 0 9990
L22 46911 36.9054 39.5993 0007074 200.9899 159.0549 14.99089483 10675

Live tracking and technical data element details for LEMUR-2-JEREMIAH (NORAD 46911). LEMUR-2-JEREMIAH can be tracked NOW for your location showing map with azimuth and elevation plus other details from your city location.

Track the satellite on the map from your city or location and see movement details for azimuth, elevation, latitude, longitude, range, height, and movement on the map or in text.







IsCatalogInMostPopularTable: catalog: 46911, numindb: 26
Update: records affected: 1



GetName: 46911 LEMUR-2-JEREMIAH

Hit Count: updated at: Mon, 18 Jan 2021 16:51:41 GMT